sat.trackr.live / text

‹ back to catalog

STARLINK-6363

NORAD 57375 · 2023-099AZ

PAYLOAD ACTIVE UNKNOWN

§ Identity

Operator
Country
US
Launch date
2023-07-16
Launch site
AFETR
Launch vehicle
Mass (kg)
RCS (m²)

Purposes: comms

External: N2YO · Heavens-Above · Gunter

§ Orbital elements

Epoch: 2026-09-20T21:53:08.062368Z

Period
94.27 min
Inclination
43.0012°
Eccentricity
0.0000772
Mean motion
15.27574471 rev/d
Perigee alt
482.5 km
Apogee alt
483.6 km
Semi-major
6,861.2 km
B*
8.0864e-6
RAAN
219.3611°
Arg perigee
266.7954°
Mean anomaly
93.2809°
Rev number
17,605

§ Raw data

STARLINK-63631 57375U 23099AZ  26263.91189887 -.00000039  00000+0  80864-5 0  99932 57375  43.0012 219.3611 0000772 266.7954  93.2809 15.27574471176050

JSON: /api/v1/satellites/57375 · /tle

For live sub-satellite position, see the globe view (requires WebGL).

§ Visibility from observer

Set your observer location to see the next 7 days of passes ≥ 10°. The values pass through the URL so the page stays shareable.

No JS? Fill the form by hand. The geolocation button needs JavaScript.